| time (UTC) | temp F | wind direction | speed MPH | gust MPH | rain 1hr in | rain 24hr in | rain mn in | humidity % | barometer mb |
| 20260509082017 | 75 | 90 | 0.0 | 1.0 | 0.00 | 0.00 | 0.00 | 82 | 1009.6 |
| 20260509081017 | 75 | 16 | 0.0 | 1.0 | 0.00 | 0.00 | 0.00 | 82 | 1009.6 |
| 20260509075517 | 75 | 115 | 2.0 | 3.0 | 0.00 | 0.00 | 0.00 | 82 | 1009.2 |
| 20260509075017 | 75 | 133 | 0.0 | 2.0 | 0.00 | 0.00 | 0.00 | 82 | 1009.2 |
| 20260509074517 | 75 | 133 | 0.0 | 3.0 | 0.00 | 0.00 | 0.00 | 82 | 1009.1 |
| 20260509074017 | 75 | 115 | 2.0 | 3.0 | 0.00 | 0.00 | 0.00 | 82 | 1009.2 |
| 20260509073516 | 74 | 193 | 0.0 | 1.0 | 0.00 | 0.00 | 0.00 | 82 | 1009.4 |
| 20260509073017 | 74 | 193 | 0.0 | 1.0 | 0.00 | 0.00 | 0.00 | 82 | 1009.5 |
| 20260509072016 | 74 | 252 | 0.0 | 0.0 | 0.00 | 0.00 | 0.00 | 82 | 1009.3 |
| 20260509071516 | 74 | 252 | 0.0 | 0.0 | 0.00 | 0.00 | 0.00 | 82 | 1009.5 |
| 20260509071016 | 74 | 252 | 0.0 | 0.0 | 0.00 | 0.00 | 0.00 | 82 | 1009.6 |
| 20260509070516 | 74 | 252 | 0.0 | 0.0 | 0.00 | 0.00 | 0.00 | 82 | 1009.7 |
| 20260509070016 | 74 | 252 | 0.0 | 3.0 | 0.00 | 0.00 | 0.00 | 82 | 1009.7 |
| 20260509065516 | 74 | 300 | 0.0 | 3.0 | 0.00 | 0.00 | 0.00 | 82 | 1009.4 |
| 20260509065016 | 74 | 165 | 0.0 | 2.0 | 0.00 | 0.00 | 0.00 | 82 | 1009.2 |
| 20260509064516 | 74 | 128 | 1.0 | 3.0 | 0.00 | 0.00 | 0.00 | 82 | 1009.3 |
| 20260509064016 | 74 | 178 | 0.0 | 3.0 | 0.00 | 0.00 | 0.00 | 82 | 1009.2 |
| 20260509063516 | 74 | 126 | 1.0 | 2.0 | 0.00 | 0.00 | 0.00 | 82 | 1009.2 |
| 20260509063016 | 74 | 127 | 0.0 | 2.0 | 0.00 | 0.00 | 0.00 | 82 | 1009.2 |
| 20260509062516 | 74 | 192 | 1.0 | 4.0 | 0.00 | 0.00 | 0.00 | 82 | 1009.4 |
| 20260509062016 | 74 | 148 | 3.0 | 4.0 | 0.00 | 0.00 | 0.00 | 82 | 1009.4 |
| 20260509061516 | 74 | 182 | 1.0 | 3.0 | 0.00 | 0.00 | 0.00 | 82 | 1009.3 |
| 20260509061016 | 74 | 140 | 1.0 | 6.0 | 0.00 | 0.00 | 0.00 | 82 | 1009.2 |
| 20260509060516 | 74 | 118 | 0.0 | 6.0 | 0.00 | 0.00 | 0.00 | 82 | 1009.1 |
| 20260509060015 | 74 | 215 | 1.0 | 4.0 | 0.00 | 0.00 | 0.00 | 82 | 1009.1 |
| 20260509055516 | 74 | 188 | 3.0 | 5.0 | 0.00 | 0.00 | 0.00 | 82 | 1009.1 |
| 20260509055016 | 74 | 150 | 2.0 | 5.0 | 0.00 | 0.00 | 0.00 | 82 | 1009.2 |
| 20260509054515 | 74 | 139 | 3.0 | 5.0 | 0.00 | 0.00 | 0.00 | 82 | 1009.3 |
| 20260509054015 | 74 | 176 | 2.0 | 3.0 | 0.00 | 0.00 | 0.00 | 82 | 1009.3 |
| 20260509053515 | 74 | 133 | 2.0 | 3.0 | 0.00 | 0.00 | 0.00 | 82 | 1009.3 |
| 20260509053015 | 74 | 123 | 2.0 | 3.0 | 0.00 | 0.00 | 0.00 | 82 | 1009.3 |
| 20260509052515 | 74 | 198 | 0.0 | 2.0 | 0.00 | 0.00 | 0.00 | 82 | 1009.1 |
| 20260509052015 | 74 | 171 | 2.0 | 2.0 | 0.00 | 0.00 | 0.00 | 82 | 1009.0 |
| 20260509051515 | 74 | 213 | 0.0 | 2.0 | 0.00 | 0.00 | 0.00 | 82 | 1008.8 |
| 20260509051015 | 74 | 153 | 2.0 | 2.0 | 0.00 | 0.00 | 0.00 | 82 | 1008.8 |
| 20260509050515 | 74 | 175 | 0.0 | 2.0 | 0.00 | 0.00 | 0.00 | 82 | 1008.9 |
| 20260509050015 | 74 | 175 | 0.0 | 2.0 | 0.00 | 0.00 | 0.00 | 82 | 1008.9 |
| 20260509045015 | 74 | 202 | 0.0 | 2.0 | 0.00 | 0.00 | 0.00 | 82 | 1008.8 |
| 20260509044515 | 74 | 157 | 0.0 | 2.0 | 0.00 | 0.00 | 0.00 | 81 | 1008.8 |
| 20260509044015 | 74 | 162 | 0.0 | 2.0 | 0.00 | 0.00 | 0.00 | 81 | 1008.7 |
| 20260509043515 | 75 | 165 | 0.0 | 0.0 | 0.00 | 0.00 | 0.00 | 81 | 1008.8 |
| 20260509043015 | 75 | 165 | 0.0 | 2.0 | 0.00 | 0.00 | 0.00 | 81 | 1008.9 |
| 20260509042514 | 75 | 165 | 0.0 | 2.0 | 0.00 | 0.00 | 0.00 | 81 | 1008.9 |
| 20260509042015 | 75 | 177 | 0.0 | 2.0 | 0.00 | 0.00 | 0.00 | 81 | 1008.8 |
| 20260509041514 | 75 | 161 | 1.0 | 2.0 | 0.00 | 0.00 | 0.00 | 81 | 1009.0 |
| 20260509041014 | 75 | 200 | 0.0 | 1.0 | 0.00 | 0.00 | 0.00 | 81 | 1009.2 |
| 20260509040514 | 75 | 200 | 0.0 | 1.0 | 0.00 | 0.00 | 0.00 | 81 | 1009.2 |
| 20260509035514 | 75 | 130 | 0.0 | 0.0 | 0.00 | 0.00 | 0.00 | 81 | 1009.1 |
| 20260509035014 | 76 | 130 | 0.0 | 0.0 | 0.00 | 0.00 | 0.00 | 80 | 1009.1 |
| 20260509034514 | 76 | 130 | 0.0 | 0.0 | 0.00 | 0.00 | 0.00 | 80 | 1009.1 |
| 20260509034014 | 76 | 130 | 0.0 | 0.0 | 0.00 | 0.00 | 0.00 | 80 | 1008.9 |
| 20260509033514 | 76 | 130 | 0.0 | 0.0 | 0.00 | 0.00 | 0.00 | 80 | 1009.0 |
| 20260509033014 | 76 | 130 | 0.0 | 1.0 | 0.00 | 0.00 | 0.00 | 80 | 1008.9 |
| 20260509032514 | 76 | 130 | 0.0 | 3.0 | 0.00 | 0.00 | 0.00 | 80 | 1008.9 |
| 20260509032014 | 76 | 121 | 2.0 | 3.0 | 0.00 | 0.00 | 0.00 | 80 | 1008.8 |
| 20260509031514 | 76 | 157 | 1.0 | 3.0 | 0.00 | 0.00 | 0.00 | 80 | 1008.7 |
| 20260509031014 | 77 | 205 | 0.0 | 3.0 | 0.00 | 0.00 | 0.00 | 80 | 1008.7 |
| 20260509030514 | 77 | 130 | 0.0 | 4.0 | 0.00 | 0.00 | 0.00 | 80 | 1008.6 |
| 20260509025514 | 77 | 151 | 0.0 | 2.0 | 0.00 | 0.00 | 0.00 | 80 | 1008.6 |
| 20260509025014 | 77 | 152 | 0.0 | 2.0 | 0.00 | 0.00 | 0.00 | 79 | 1008.6 |
| 20260509024514 | 77 | 157 | 0.0 | 1.0 | 0.00 | 0.00 | 0.00 | 79 | 1008.5 |
| 20260509024014 | 77 | 129 | 0.0 | 0.0 | 0.00 | 0.00 | 0.00 | 79 | 1008.6 |
| 20260509023513 | 77 | 105 | 0.0 | 0.0 | 0.00 | 0.00 | 0.00 | 79 | 1008.5 |
| 20260509022514 | 77 | 105 | 1.0 | 2.0 | 0.00 | 0.00 | 0.00 | 79 | 1008.4 |
| 20260509022014 | 77 | 105 | 0.0 | 2.0 | 0.00 | 0.00 | 0.00 | 79 | 1008.2 |
| 20260509021014 | 78 | 190 | 2.0 | 6.0 | 0.00 | 0.00 | 0.00 | 78 | 1008.0 |
| 20260509020514 | 78 | 150 | 1.0 | 2.0 | 0.00 | 0.00 | 0.00 | 78 | 1007.8 |
| 20260509020013 | 78 | 123 | 0.0 | 3.0 | 0.00 | 0.00 | 0.00 | 78 | 1007.7 |
| 20260509015513 | 78 | 96 | 0.0 | 4.0 | 0.00 | 0.00 | 0.00 | 78 | 1007.6 |
| 20260509015013 | 78 | 101 | 0.0 | 4.0 | 0.00 | 0.00 | 0.00 | 78 | 1007.6 |
| 20260509014514 | 78 | 154 | 1.0 | 3.0 | 0.00 | 0.00 | 0.00 | 78 | 1007.7 |
| 20260509013513 | 78 | 138 | 5.0 | 5.0 | 0.00 | 0.00 | 0.00 | 77 | 1007.7 |
| 20260509012513 | 78 | 124 | 2.0 | 2.0 | 0.00 | 0.00 | 0.00 | 77 | 1007.8 |
| 20260509012013 | 78 | 102 | 1.0 | 8.0 | 0.00 | 0.00 | 0.00 | 77 | 1007.7 |
| 20260509011513 | 78 | 172 | 5.0 | 8.0 | 0.00 | 0.00 | 0.00 | 77 | 1007.7 |
| 20260509011013 | 79 | 98 | 2.0 | 6.0 | 0.00 | 0.00 | 0.00 | 77 | 1007.7 |
| 20260509010512 | 79 | 117 | 0.0 | 2.0 | 0.00 | 0.00 | 0.00 | 77 | 1007.6 |
| 20260509010013 | 79 | 74 | 1.0 | 4.0 | 0.00 | 0.00 | 0.00 | 77 | 1007.6 |
| 20260509005512 | 79 | 121 | 1.0 | 4.0 | 0.00 | 0.00 | 0.00 | 76 | 1007.6 |
| 20260509005013 | 79 | 201 | 4.0 | 4.0 | 0.00 | 0.00 | 0.00 | 76 | 1007.5 |
| 20260509004013 | 79 | 122 | 1.0 | 6.0 | 0.00 | 0.00 | 0.00 | 76 | 1007.5 |
| 20260509003012 | 79 | 110 | 6.0 | 6.0 | 0.00 | 0.00 | 0.00 | 76 | 1007.5 |
| 20260509002512 | 79 | 130 | 3.0 | 3.0 | 0.00 | 0.00 | 0.00 | 75 | 1007.5 |
| 20260509002012 | 79 | 164 | 0.0 | 3.0 | 0.00 | 0.00 | 0.00 | 75 | 1007.6 |
| 20260509001012 | 79 | 133 | 0.0 | 2.0 | 0.00 | 0.00 | 0.00 | 75 | 1007.6 |
| 20260509000512 | 80 | 141 | 0.0 | 3.0 | 0.00 | 0.00 | 0.00 | 75 | 1007.7 |
| 20260509000012 | 80 | 109 | 2.0 | 4.0 | 0.00 | 0.00 | 0.00 | 75 | 1007.6 |
| 20260508235512 | 80 | 196 | 2.0 | 4.0 | 0.00 | 0.00 | 0.00 | 74 | 1007.5 |
| 20260508235012 | 80 | 192 | 2.0 | 3.0 | 0.00 | 0.00 | 0.00 | 74 | 1007.5 |
| 20260508234512 | 80 | 125 | 1.0 | 2.0 | 0.00 | 0.00 | 0.00 | 74 | 1007.5 |
| 20260508234012 | 80 | 172 | 2.0 | 5.0 | 0.00 | 0.00 | 0.00 | 74 | 1007.6 |
| 20260508233512 | 81 | 119 | 1.0 | 5.0 | 0.00 | 0.00 | 0.00 | 74 | 1007.5 |
| 20260508233012 | 81 | 120 | 2.0 | 5.0 | 0.00 | 0.00 | 0.00 | 74 | 1007.5 |
| 20260508232512 | 81 | 168 | 1.0 | 8.0 | 0.00 | 0.00 | 0.00 | 74 | 1007.5 |
| 20260508232011 | 81 | 254 | 2.0 | 8.0 | 0.00 | 0.00 | 0.00 | 74 | 1007.6 |
| 20260508231512 | 81 | 133 | 1.0 | 4.0 | 0.00 | 0.00 | 0.00 | 73 | 1007.6 |
| 20260508231011 | 81 | 165 | 4.0 | 6.0 | 0.00 | 0.00 | 0.00 | 73 | 1007.7 |
| 20260508230512 | 81 | 176 | 3.0 | 6.0 | 0.00 | 0.00 | 0.00 | 73 | 1007.7 |
| 20260508230011 | 81 | 212 | 2.0 | 5.0 | 0.00 | 0.00 | 0.00 | 73 | 1007.7 |
| 20260508225511 | 81 | 205 | 4.0 | 5.0 | 0.00 | 0.00 | 0.00 | 73 | 1007.6 |
| 20260508225012 | 81 | 236 | 2.0 | 4.0 | 0.00 | 0.00 | 0.00 | 73 | 1007.6 |
| 20260508223511 | 81 | 206 | 1.0 | 4.0 | 0.00 | 0.00 | 0.00 | 72 | 1007.5 |
| 20260508223011 | 82 | 123 | 3.0 | 4.0 | 0.00 | 0.00 | 0.00 | 72 | 1007.5 |
| 20260508222511 | 82 | 217 | 1.0 | 3.0 | 0.00 | 0.00 | 0.00 | 71 | 1007.6 |
| 20260508222011 | 82 | 137 | 1.0 | 3.0 | 0.00 | 0.00 | 0.00 | 72 | 1007.6 |
| 20260508220510 | 82 | 220 | 1.0 | 8.0 | 0.00 | 0.00 | 0.00 | 72 | 1007.7 |
| 20260508220010 | 82 | 98 | 1.0 | 8.0 | 0.00 | 0.00 | 0.00 | 72 | 1007.7 |
| 20260508215010 | 81 | 90 | 3.0 | 3.0 | 0.00 | 0.00 | 0.00 | 72 | 1007.8 |
| 20260508214510 | 81 | 135 | 0.0 | 8.0 | 0.00 | 0.00 | 0.00 | 72 | 1007.9 |
| 20260508213510 | 81 | 140 | 0.0 | 2.0 | 0.00 | 0.00 | 0.00 | 72 | 1007.9 |
| 20260508212010 | 80 | 124 | 2.0 | 3.0 | 0.00 | 0.00 | 0.00 | 72 | 1008.2 |
| 20260508211510 | 80 | 105 | 0.0 | 2.0 | 0.00 | 0.00 | 0.00 | 72 | 1008.3 |
| 20260508211010 | 80 | 217 | 1.0 | 4.0 | 0.00 | 0.00 | 0.00 | 73 | 1008.4 |
| 20260508210510 | 80 | 113 | 0.0 | 4.0 | 0.00 | 0.00 | 0.00 | 72 | 1008.6 |
| 20260508210010 | 80 | 98 | 2.0 | 5.0 | 0.00 | 0.00 | 0.00 | 73 | 1008.6 |
| 20260508205510 | 80 | 84 | 1.0 | 5.0 | 0.00 | 0.00 | 0.00 | 72 | 1008.8 |
| 20260508205009 | 80 | 123 | 4.0 | 6.0 | 0.00 | 0.00 | 0.00 | 72 | 1008.7 |
| 20260508204509 | 80 | 71 | 3.0 | 6.0 | 0.00 | 0.00 | 0.00 | 72 | 1008.8 |
| 20260508204009 | 80 | 147 | 2.0 | 4.0 | 0.00 | 0.00 | 0.00 | 73 | 1008.8 |
| 20260508203509 | 80 | 111 | 3.0 | 6.0 | 0.00 | 0.00 | 0.00 | 72 | 1009.0 |
| 20260508203009 | 80 | 125 | 4.0 | 6.0 | 0.00 | 0.00 | 0.00 | 72 | 1008.9 |
| 20260508202510 | 80 | 121 | 5.0 | 5.0 | 0.00 | 0.00 | 0.00 | 72 | 1008.9 |
| 20260508202009 | 80 | 85 | 1.0 | 5.0 | 0.00 | 0.00 | 0.00 | 72 | 1009.0 |
| 20260508201509 | 80 | 107 | 3.0 | 4.0 | 0.00 | 0.00 | 0.00 | 72 | 1009.0 |
| 20260508201009 | 80 | 126 | 3.0 | 9.0 | 0.00 | 0.00 | 0.00 | 73 | 1008.8 |
| 20260508200509 | 79 | 127 | 4.0 | 9.0 | 0.00 | 0.00 | 0.00 | 72 | 1009.0 |
| 20260508200009 | 79 | 139 | 4.0 | 4.0 | 0.00 | 0.00 | 0.00 | 73 | 1009.2 |
| 20260508195509 | 79 | 219 | 1.0 | 7.0 | 0.00 | 0.00 | 0.00 | 73 | 1009.2 |
| 20260508195009 | 79 | 82 | 0.0 | 7.0 | 0.00 | 0.00 | 0.00 | 73 | 1009.3 |
| 20260508194509 | 79 | 187 | 3.0 | 4.0 | 0.00 | 0.00 | 0.00 | 73 | 1009.4 |
| 20260508194009 | 78 | 101 | 0.0 | 3.0 | 0.00 | 0.00 | 0.00 | 73 | 1009.4 |
| 20260508193009 | 78 | 5 | 1.0 | 8.0 | 0.00 | 0.00 | 0.00 | 73 | 1009.6 |
| 20260508192509 | 78 | 254 | 3.0 | 3.0 | 0.00 | 0.00 | 0.00 | 73 | 1009.6 |
| 20260508192009 | 78 | 112 | 0.0 | 2.0 | 0.00 | 0.00 | 0.00 | 73 | 1009.7 |
| 20260508191509 | 78 | 105 | 2.0 | 3.0 | 0.00 | 0.00 | 0.00 | 73 | 1009.7 |
| 20260508191008 | 78 | 112 | 1.0 | 3.0 | 0.00 | 0.00 | 0.00 | 73 | 1009.8 |
| 20260508190038 | 78 | 108 | 1.0 | 4.0 | 0.00 | 0.00 | 0.00 | 73 | 1009.8 |
| 20260508185508 | 78 | 115 | 1.0 | 2.0 | 0.00 | 0.00 | 0.00 | 73 | 1009.9 |
| 20260508185008 | 78 | 103 | 1.0 | 1.0 | 0.00 | 0.00 | 0.00 | 73 | 1010.0 |
| 20260508184508 | 77 | 55 | 0.0 | 5.0 | 0.00 | 0.00 | 0.00 | 73 | 1010.0 |
| 20260508184008 | 77 | 109 | 2.0 | 5.0 | 0.00 | 0.00 | 0.00 | 73 | 1010.1 |
| 20260508183508 | 77 | 164 | 2.0 | 6.0 | 0.00 | 0.00 | 0.00 | 74 | 1010.2 |
| 20260508183008 | 76 | 105 | 4.0 | 6.0 | 0.00 | 0.00 | 0.00 | 74 | 1010.2 |
| 20260508182508 | 76 | 115 | 1.0 | 9.0 | 0.00 | 0.00 | 0.00 | 74 | 1010.4 |
| 20260508182009 | 76 | 135 | 4.0 | 9.0 | 0.00 | 0.00 | 0.00 | 74 | 1010.5 |
| 20260508181008 | 76 | 85 | 0.0 | 6.0 | 0.00 | 0.00 | 0.00 | 74 | 1010.7 |
| 20260508180508 | 76 | 84 | 0.0 | 3.0 | 0.00 | 0.00 | 0.00 | 73 | 1010.8 |
| 20260508180038 | 76 | 108 | 0.0 | 1.0 | 0.00 | 0.00 | 0.00 | 74 | 1010.9 |
| 20260508175508 | 76 | 47 | 0.0 | 3.0 | 0.00 | 0.00 | 0.00 | 74 | 1010.9 |
| 20260508175008 | 75 | 101 | 1.0 | 3.0 | 0.00 | 0.00 | 0.00 | 74 | 1010.9 |
| 20260508174508 | 75 | 94 | 0.0 | 2.0 | 0.00 | 0.00 | 0.00 | 74 | 1011.0 |
| 20260508174008 | 75 | 103 | 1.0 | 1.0 | 0.00 | 0.00 | 0.00 | 73 | 1010.9 |
| 20260508173508 | 76 | 129 | 1.0 | 1.0 | 0.00 | 0.00 | 0.00 | 73 | 1011.1 |
| 20260508173008 | 76 | 98 | 0.0 | 4.0 | 0.00 | 0.00 | 0.00 | 73 | 1011.3 |
| 20260508172008 | 76 | 128 | 0.0 | 3.0 | 0.00 | 0.00 | 0.00 | 73 | 1011.3 |
| 20260508171508 | 76 | 75 | 1.0 | 1.0 | 0.00 | 0.00 | 0.00 | 73 | 1011.3 |
| 20260508171008 | 76 | 67 | 0.0 | 1.0 | 0.00 | 0.00 | 0.00 | 73 | 1011.2 |
| 20260508170508 | 76 | 111 | 0.0 | 3.0 | 0.00 | 0.00 | 0.00 | 73 | 1011.2 |
| 20260508165507 | 76 | 128 | 2.0 | 3.0 | 0.00 | 0.00 | 0.00 | 72 | 1011.4 |
| 20260508165008 | 76 | 111 | 0.0 | 5.0 | 0.00 | 0.00 | 0.00 | 73 | 1011.3 |
| 20260508164507 | 76 | 347 | 3.0 | 5.0 | 0.00 | 0.00 | 0.00 | 73 | 1011.3 |
| 20260508164007 | 75 | 67 | 0.0 | 3.0 | 0.00 | 0.00 | 0.00 | 73 | 1011.3 |
| 20260508163007 | 74 | 131 | 1.0 | 3.0 | 0.00 | 0.00 | 0.00 | 74 | 1011.3 |
| 20260508162507 | 73 | 138 | 1.0 | 3.0 | 0.00 | 0.00 | 0.00 | 75 | 1011.4 |
| 20260508162007 | 73 | 109 | 1.0 | 2.0 | 0.00 | 0.00 | 0.00 | 76 | 1011.6 |
| 20260508161507 | 73 | 139 | 0.0 | 1.0 | 0.00 | 0.00 | 0.00 | 75 | 1011.7 |
| 20260508160507 | 72 | 90 | 0.0 | 0.0 | 0.00 | 0.00 | 0.00 | 76 | 1012.0 |
| 20260508160007 | 72 | 90 | 0.0 | 1.0 | 0.00 | 0.00 | 0.00 | 76 | 1012.1 |
| 20260508155507 | 71 | 90 | 0.0 | 1.0 | 0.00 | 0.00 | 0.00 | 76 | 1012.0 |
| 20260508155007 | 71 | 90 | 0.0 | 2.0 | 0.00 | 0.00 | 0.00 | 76 | 1011.9 |
| 20260508154507 | 71 | 327 | 2.0 | 2.0 | 0.00 | 0.00 | 0.00 | 77 | 1011.9 |
| 20260508153507 | 70 | 153 | 0.0 | 1.0 | 0.00 | 0.00 | 0.00 | 77 | 1012.3 |
| 20260508153007 | 69 | 118 | 0.0 | 4.0 | 0.00 | 0.00 | 0.00 | 77 | 1012.2 |
| 20260508152507 | 69 | 123 | 4.0 | 4.0 | 0.00 | 0.00 | 0.00 | 77 | 1012.2 |
| 20260508152007 | 69 | 319 | 2.0 | 3.0 | 0.00 | 0.00 | 0.00 | 77 | 1012.3 |
| 20260508151006 | 68 | 150 | 1.0 | 2.0 | 0.00 | 0.00 | 0.00 | 78 | 1012.4 |
| 20260508150506 | 68 | 146 | 0.0 | 2.0 | 0.00 | 0.00 | 0.00 | 78 | 1012.5 |
| 20260508150007 | 67 | 111 | 0.0 | 2.0 | 0.00 | 0.00 | 0.00 | 78 | 1012.5 |
| 20260508145506 | 67 | 111 | 1.0 | 2.0 | 0.00 | 0.00 | 0.00 | 78 | 1012.5 |
| 20260508145006 | 67 | 104 | 0.0 | 1.0 | 0.00 | 0.00 | 0.00 | 78 | 1012.4 |
| 20260508144506 | 67 | 104 | 0.0 | 2.0 | 0.00 | 0.00 | 0.00 | 78 | 1012.4 |
| 20260508144007 | 67 | 104 | 1.0 | 2.0 | 0.00 | 0.00 | 0.00 | 78 | 1012.5 |
| 20260508143507 | 66 | 88 | 0.0 | 3.0 | 0.00 | 0.00 | 0.00 | 78 | 1012.5 |
| 20260508143006 | 66 | 323 | 2.0 | 3.0 | 0.00 | 0.00 | 0.00 | 78 | 1012.4 |
| 20260508142506 | 66 | 67 | 1.0 | 3.0 | 0.00 | 0.00 | 0.00 | 78 | 1012.2 |
| 20260508142006 | 65 | 96 | 0.0 | 3.0 | 0.00 | 0.00 | 0.00 | 78 | 1012.3 |
| 20260508141506 | 65 | 143 | 3.0 | 3.0 | 0.00 | 0.00 | 0.00 | 78 | 1012.5 |
| 20260508141006 | 65 | 111 | 1.0 | 3.0 | 0.00 | 0.00 | 0.00 | 78 | 1012.6 |
| 20260508140506 | 65 | 111 | 1.0 | 4.0 | 0.00 | 0.00 | 0.00 | 78 | 1012.6 |
| 20260508140006 | 65 | 111 | 4.0 | 4.0 | 0.00 | 0.00 | 0.00 | 78 | 1012.7 |
| 20260508135506 | 65 | 94 | 0.0 | 2.0 | 0.00 | 0.00 | 0.00 | 77 | 1012.7 |
| 20260508135006 | 65 | 42 | 2.0 | 2.0 | 0.00 | 0.00 | 0.00 | 77 | 1012.7 |
| 20260508134506 | 65 | 190 | 1.0 | 2.0 | 0.00 | 0.00 | 0.00 | 77 | 1012.7 |
| 20260508134006 | 65 | 88 | 0.0 | 2.0 | 0.00 | 0.00 | 0.00 | 77 | 1012.7 |
| 20260508133506 | 65 | 101 | 0.0 | 1.0 | 0.00 | 0.00 | 0.00 | 77 | 1012.9 |
| 20260508133006 | 65 | 101 | 0.0 | 1.0 | 0.00 | 0.00 | 0.00 | 77 | 1013.0 |
| 20260508132506 | 65 | 101 | 0.0 | 1.0 | 0.00 | 0.00 | 0.00 | 77 | 1013.0 |
| 20260508132006 | 65 | 101 | 0.0 | 2.0 | 0.00 | 0.00 | 0.00 | 77 | 1013.0 |
| 20260508131536 | 65 | 96 | 0.0 | 2.0 | 0.00 | 0.00 | 0.00 | 77 | 1012.8 |
| 20260508130535 | 65 | 98 | 1.0 | 2.0 | 0.00 | 0.00 | 0.00 | 77 | 1012.6 |
| 20260508130036 | 65 | 85 | 1.0 | 2.0 | 0.00 | 0.00 | 0.00 | 77 | 1012.7 |
| 20260508125535 | 65 | 76 | 0.0 | 2.0 | 0.00 | 0.00 | 0.00 | 77 | 1012.7 |
| 20260508125035 | 65 | 45 | 0.0 | 1.0 | 0.00 | 0.00 | 0.00 | 77 | 1012.7 |
| 20260508124535 | 65 | 223 | 0.0 | 3.0 | 0.00 | 0.00 | 0.00 | 77 | 1012.8 |
| 20260508124035 | 65 | 278 | 0.0 | 3.0 | 0.00 | 0.00 | 0.00 | 77 | 1012.6 |
| 20260508123535 | 65 | 5 | 2.0 | 3.0 | 0.00 | 0.00 | 0.00 | 77 | 1012.6 |
| 20260508123035 | 65 | 87 | 0.0 | 2.0 | 0.00 | 0.00 | 0.00 | 77 | 1012.6 |
| 20260508122535 | 65 | 27 | 0.0 | 4.0 | 0.00 | 0.00 | 0.00 | 77 | 1012.6 |
| 20260508122034 | 65 | 351 | 1.0 | 4.0 | 0.00 | 0.00 | 0.00 | 77 | 1012.6 |
| 20260508121535 | 65 | 59 | 0.0 | 1.0 | 0.00 | 0.00 | 0.00 | 77 | 1012.8 |
| 20260508121035 | 65 | 77 | 0.0 | 2.0 | 0.00 | 0.00 | 0.00 | 76 | 1012.9 |
| 20260508120034 | 65 | 74 | 0.0 | 1.0 | 0.00 | 0.00 | 0.00 | 76 | 1013.1 |
| 20260508115534 | 65 | 74 | 0.0 | 1.0 | 0.00 | 0.00 | 0.00 | 76 | 1013.3 |
| 20260508114534 | 65 | 70 | 0.0 | 1.0 | 0.00 | 0.00 | 0.00 | 76 | 1013.2 |
| 20260508114034 | 65 | 70 | 0.0 | 0.0 | 0.00 | 0.00 | 0.00 | 76 | 1013.4 |
| 20260508113533 | 65 | 70 | 0.0 | 0.0 | 0.00 | 0.00 | 0.00 | 76 | 1013.4 |
| 20260508113034 | 65 | 70 | 0.0 | 1.0 | 0.00 | 0.00 | 0.00 | 76 | 1013.4 |
| 20260508112534 | 65 | 70 | 0.0 | 1.0 | 0.00 | 0.00 | 0.00 | 76 | 1013.4 |
| 20260508112033 | 65 | 70 | 0.0 | 0.0 | 0.00 | 0.00 | 0.00 | 76 | 1013.4 |
| 20260508111533 | 65 | 70 | 0.0 | 0.0 | 0.00 | 0.00 | 0.00 | 76 | 1013.4 |
| 20260508111033 | 65 | 9 | 0.0 | 3.0 | 0.00 | 0.00 | 0.00 | 76 | 1013.2 |
| 20260508110533 | 65 | 342 | 1.0 | 3.0 | 0.00 | 0.00 | 0.00 | 76 | 1013.2 |
| 20260508110033 | 65 | 339 | 0.0 | 2.0 | 0.00 | 0.00 | 0.00 | 76 | 1013.2 |
| 20260508105533 | 65 | 36 | 1.0 | 2.0 | 0.00 | 0.00 | 0.00 | 76 | 1013.0 |
| 20260508105033 | 65 | 46 | 1.0 | 2.0 | 0.00 | 0.00 | 0.00 | 76 | 1013.1 |
| 20260508103533 | 65 | 76 | 0.0 | 1.0 | 0.00 | 0.00 | 0.00 | 76 | 1013.3 |
| 20260508102533 | 65 | 360 | 1.0 | 3.0 | 0.00 | 0.00 | 0.00 | 76 | 1013.0 |
| 20260508102033 | 64 | 47 | 0.0 | 2.0 | 0.00 | 0.00 | 0.00 | 76 | 1013.1 |
| 20260508101532 | 64 | 64 | 0.0 | 1.0 | 0.00 | 0.00 | 0.00 | 76 | 1012.9 |
| 20260508101032 | 64 | 22 | 1.0 | 1.0 | 0.00 | 0.00 | 0.00 | 75 | 1012.9 |
| 20260508100533 | 64 | 50 | 1.0 | 3.0 | 0.00 | 0.00 | 0.00 | 76 | 1013.1 |
| 20260508095532 | 64 | 13 | 2.0 | 2.0 | 0.00 | 0.00 | 0.00 | 76 | 1013.1 |
| 20260508095033 | 64 | 50 | 1.0 | 2.0 | 0.00 | 0.00 | 0.00 | 76 | 1013.1 |
| 20260508094533 | 64 | 69 | 0.0 | 1.0 | 0.00 | 0.00 | 0.00 | 76 | 1013.1 |
| 20260508094032 | 64 | 53 | 1.0 | 3.0 | 0.00 | 0.00 | 0.00 | 75 | 1013.3 |
| 20260508093032 | 64 | 355 | 2.0 | 3.0 | 0.00 | 0.00 | 0.00 | 75 | 1013.5 |
| 20260508092032 | 64 | 74 | 1.0 | 2.0 | 0.00 | 0.00 | 0.00 | 75 | 1013.4 |
| 20260508091532 | 64 | 11 | 0.0 | 3.0 | 0.00 | 0.00 | 0.00 | 75 | 1013.3 |
| 20260508091032 | 64 | 360 | 1.0 | 3.0 | 0.00 | 0.00 | 0.00 | 75 | 1013.1 |
| 20260508090532 | 64 | 78 | 0.0 | 1.0 | 0.00 | 0.00 | 0.00 | 75 | 1013.0 |
| 20260508090032 | 64 | 57 | 0.0 | 2.0 | 0.00 | 0.00 | 0.00 | 75 | 1013.0 |
| 20260508085532 | 64 | 13 | 0.0 | 2.0 | 0.00 | 0.00 | 0.00 | 75 | 1012.9 |
| 20260508085032 | 64 | 86 | 0.0 | 1.0 | 0.00 | 0.00 | 0.00 | 75 | 1013.0 |
| 20260508084532 | 64 | 5 | 1.0 | 1.0 | 0.00 | 0.00 | 0.00 | 75 | 1013.1 |
| 20260508084032 | 64 | 355 | 0.0 | 3.0 | 0.00 | 0.00 | 0.00 | 75 | 1013.2 |
| 20260508083532 | 64 | 19 | 0.0 | 3.0 | 0.00 | 0.00 | 0.00 | 75 | 1013.2 |
| 20260508083032 | 64 | 34 | 1.0 | 2.0 | 0.00 | 0.00 | 0.00 | 75 | 1013.3 |
| 20260508082532 | 64 | 80 | 0.0 | 2.0 | 0.00 | 0.00 | 0.00 | 75 | 1013.4 |